Starlink 5032

operational
NORAD ID: 53895 Int'l Des: 2022-119 Owner: SPXS Country: US Constellation: starlink
LEOCIRCULAR

关于 Starlink 5032

正在加载描述...

实时位置

正在加载3D地球...

即将过境

高度历史

Altitude vs Time

uPlot chart will show altitude changes over time

两行轨道根数

1 53895U 22119K 25305.63353196 -.00005289 00000-0 -31433-3 0 9999
2 53895 53.2179 178.9032 0001865 96.0070 264.1135 15.08855677172353
Epoch: Nov 1, 2025 • Age: 7 hours

当前状态

高度 539.4 km
速度 7.60 km/s
星下点 18.53°N, 32.12°W
发射日期 Sep 24, 2022
运行时间 3.1 years
类型 internet

技术详情

分类 Payload
质量 305.00 kg
干质量 290.00 kg
总质量 305.00 kg
长度 0.20 m
直径 2.80 m
跨度 9.00 m
形状 Box + pan
制造商 SPXS
平台类型 Starlink
阶段状态 In Orbit
所有者/国家 SPXS/US

大型星座

Loading constellations...